Погода в Михайловке

Украина / Запорожская область     47°57′12″N   35°15′31″E
темп.,
°C
ветер,
м/с
пор.,
м/с
влажн.,
%
обл.,
%
осадки,
мм/ч
давл.,
гПа
погр.,
м
16 апреля, пт
пт1600:00+8ю5988100 0.1 1014685
03:00+7ююз61088100 0.1 1014663
06:00+7ююз6988100 0.0 1015618
09:00+7ююз588798 0.1 1016612
12:00+11юз695969 0.1 10161467
15:00+12ю795798 0.8 10161661
18:00+10ююз696868 1.1 10161015
21:00+7ююз36765 1.6 1017113
17 апреля, сб
сб1700:00+5з258398 0.2 1018176
03:00+4юз368385 0.2 1019137
06:00+6юз598491 0.0 1019683
09:00+8зюз697187 0.1 10201058
12:00+11зюз795298 0.0 10201797
15:00+11зюз4653100 0.1 10211398
18:00+11з245584 0.0 1020723
21:00+9ююв226497 0.0 102116
18 апреля, вс
вс1800:00+8ю467418 0.0 1021189
03:00+6ю3680100 0.0 1020112
06:00+5ю3376100 0.0 102045
09:00+10ююв345487 0.0 1020403
12:00+14юв44375 0.0 10181432
15:00+16ююв33345 0.0 10171943
18:00+15ююв444699 0.0 1017978
21:00+11ююв476094 0.0 1018207
19 апреля, пн
пн1900:00+9юв2374100 0.0 101755
03:00+9всв2374100 0.0 101699
06:00+9всв3686100 0.5 1015249
09:00+9св4791100 1.6 1014422
12:00+10св3487100 0.1 1014374
15:00+12всв3382100 0.1 1012584
18:00+12в3586100 0.1 1010381
21:00+11всв3693100 0.1 1008261
20 апреля, вт
вт2000:00+11всв5897100 2.2 1004311
03:00+11ююв51098100 4.3 1000497
06:00+11ю489996 0.5 998357
09:00+13ююз8117974 0.8 9971040
12:00+12ююз81372100 0.1 9971533
15:00+10ююв91480100 1.4 9961368
18:00+9зюз71192100 0.5 996838
21:00+8з91484100 0.6 10041272